Theta_e
320 319 319 319 319 319 319 318 318 317 316 316 316 316 316 316 317 319 327 329 332 342 343 346 345 348 349 350 351 352 355 347 346 347 346 342 344 344 344 345 344 343 342 341 335
320 320 319 319 318 319 319 319 318 317 317 316 316 316 316 316 318 323 331 329 332 339 345 347 347 349 351 350 351 354 353 351 342 344 344 343 344 344 345 345 344 345 342 338 335
319 320 320 319 318 319 319 319 318 317 317 316 316 317 316 317 324 333 333 332 331 335 346 348 348 350 351 346 348 353 352 347 346 341 342 343 344 344 345 347 344 345 345 341 338
317 319 320 320 319 319 320 319 318 317 317 316 316 317 317 319 333 329 333 335 337 341 347 349 349 351 347 348 346 352 348 348 342 342 342 344 344 345 345 345 343 344 343 345 345
315 317 319 320 319 319 319 319 318 317 317 316 316 317 318 320 325 329 331 340 346 345 344 350 350 349 347 346 347 350 346 341 341 342 343 343 345 345 344 343 343 343 346 347 347
313 315 318 320 320 319 320 320 319 317 316 316 316 317 318 323 329 330 331 337 347 346 347 346 346 345 345 346 346 346 345 340 342 342 343 344 345 345 344 343 345 345 347 347 346
312 313 316 319 320 319 320 319 319 317 316 316 316 316 318 322 326 331 331 338 345 346 350 350 350 347 347 346 346 345 342 342 342 343 343 344 346 346 344 343 345 347 347 347 344
311 312 314 318 320 319 319 318 318 317 315 315 316 316 319 320 322 331 330 334 344 346 347 349 347 346 347 346 344 345 343 345 344 342 339 344 348 346 343 343 343 344 345 347 346
311 311 313 316 320 320 319 317 317 317 315 315 315 316 319 320 322 331 331 336 344 346 347 347 344 344 346 346 346 346 349 348 348 345 340 343 344 341 343 343 344 343 343 344 345
311 311 312 314 319 320 319 318 316 316 315 314 315 319 322 324 324 326 330 333 336 339 340 342 341 345 345 346 349 348 348 349 348 347 345 342 342 343 342 343 344 343 343 343 343
310 311 312 313 318 320 319 318 318 320 316 316 316 319 321 322 326 328 326 328 331 332 336 338 341 344 343 343 344 345 346 348 346 345 346 348 349 345 343 342 343 343 343 343 343
310 311 312 312 316 319 320 322 325 324 325 326 326 324 323 323 324 323 328 328 330 335 334 339 341 340 340 340 343 345 347 348 346 345 348 350 351 348 345 344 343 343 343 343 343
310 311 311 312 314 319 320 325 325 324 324 325 326 327 326 326 326 324 328 329 332 333 336 339 342 337 337 334 342 344 347 347 345 347 346 348 349 349 346 345 344 343 344 344 344
310 311 311 312 316 319 320 321 323 324 328 328 326 326 326 323 324 323 328 329 332 337 335 338 336 336 327 330 342 345 344 345 345 346 349 346 351 349 348 347 346 344 344 344 344
311 311 312 312 317 320 322 324 325 324 333 328 326 324 324 323 323 324 327 328 331 332 334 339 331 329 330 331 341 337 338 345 345 346 347 347 350 349 345 349 347 345 344 344 344
311 312 312 312 313 321 325 325 325 327 331 330 324 324 324 322 323 323 327 327 327 330 327 330 325 326 328 328 338 332 338 336 339 346 350 345 348 342 346 348 347 345 344 344 343
311 312 312 313 314 322 323 324 329 328 328 330 326 323 325 324 323 324 326 328 329 329 330 328 327 325 325 328 327 327 336 333 338 344 342 337 346 343 343 341 342 345 344 344 343
312 312 313 313 316 320 323 328 330 326 329 329 322 320 327 323 324 323 324 326 324 326 327 329 338 329 325 330 336 328 329 331 334 333 332 335 340 341 339 342 343 345 345 344 344
312 314 317 314 314 321 324 330 328 326 330 331 322 324 324 322 323 324 324 325 326 325 328 328 328 324 324 325 327 328 330 326 328 326 330 332 336 338 342 340 343 344 345 345 344
313 325 321 316 313 320 327 327 327 324 328 329 328 324 325 324 324 325 326 326 326 324 327 328 328 325 324 323 322 326 324 328 328 333 333 332 334 342 341 342 343 348 349 350 348
316 327 321 320 313 322 329 328 325 325 326 328 329 329 325 324 325 325 326 325 325 323 323 324 327 328 325 328 326 325 326 323 326 327 329 331 334 341 347 344 345 351 352 352 350
317 328 314 315 323 319 327 325 325 327 325 325 326 329 331 330 327 326 327 328 329 323 325 325 327 330 328 326 325 326 329 328 331 331 327 331 332 349 350 348 349 350 352 351 350
321 321 314 317 325 324 321 323 324 326 325 325 327 327 328 331 334 332 329 330 327 324 326 324 328 330 332 332 330 335 330 326 325 327 333 333 334 350 348 347 348 350 351 351 352
324 327 316 315 317 321 324 324 325 323 323 324 327 326 329 332 330 335 334 331 327 331 324 323 325 331 332 332 333 335 334 326 333 337 333 333 338 354 349 347 346 347 347 346 347
322 322 319 322 321 323 323 323 325 326 324 325 328 327 329 333 332 333 330 331 327 324 328 328 334 329 329 330 331 334 335 331 334 334 335 335 340 353 346 345 343 341 339 338 337
320 322 321 321 320 322 319 325 326 326 324 327 328 327 326 333 334 334 331 331 334 326 331 329 338 334 334 331 329 332 332 334 336 336 333 335 345 346 338 341 339 338 337 336 336
318 321 321 320 322 323 324 324 323 321 323 323 324 325 326 325 323 322 321 322 324 326 329 333 336 336 336 330 331 333 333 336 338 338 337 341 345 340 338 337 335 334 334 334 334
Wind_Speed
7 6 6 5 3 2 1 1 1 2 1 1 1 2 2 4 5 7 9 4 8 9 10 11 6 2 2 0 2 1 2 4 5 9 5 11 7 5 5 12 5 2 10 18 24
6 6 6 5 4 2 1 1 1 2 2 2 1 3 3 3 6 9 6 8 8 7 9 9 4 0 0 1 1 1 1 4 6 9 8 12 12 12 7 13 4 6 16 23 23
7 6 6 5 4 2 1 1 2 2 2 2 1 2 4 5 2 1 7 7 7 8 5 6 2 0 1 1 0 1 1 3 3 13 13 16 12 10 9 8 9 15 24 25 23
7 6 6 5 4 3 2 1 2 2 2 2 1 2 3 2 1 2 8 7 8 9 9 9 2 1 2 2 2 3 4 6 1 14 14 18 13 10 14 2 10 15 30 27 24
7 6 6 5 5 3 2 2 2 2 3 2 2 1 2 1 1 0 12 11 12 10 6 6 2 2 5 5 1 4 6 4 4 14 11 16 15 7 14 4 11 18 27 25 23
8 6 5 5 5 3 2 2 2 3 3 3 3 2 1 1 2 3 13 11 10 10 7 5 1 6 6 5 3 3 6 4 7 12 8 12 8 8 8 10 16 20 26 23 23
9 7 6 5 5 4 2 2 3 3 3 3 3 3 4 3 2 5 11 9 7 8 2 3 6 4 7 5 6 2 7 8 7 8 5 10 6 12 9 16 18 20 22 22 23
10 7 6 6 5 3 3 2 3 3 3 4 3 3 2 5 5 6 11 11 9 7 6 5 4 7 4 7 3 2 3 2 3 9 5 11 7 13 17 21 20 21 21 21 21
11 9 6 5 5 4 2 2 3 3 3 4 4 3 2 3 6 8 10 7 8 8 6 5 7 3 4 3 2 6 2 2 4 1 7 11 4 2 19 21 21 23 23 22 20
13 10 7 4 3 3 3 2 3 3 4 4 5 3 2 4 7 11 13 10 6 7 5 4 2 3 2 3 4 4 3 3 4 6 7 10 13 4 16 20 22 24 23 22 21
14 12 8 4 3 4 4 2 2 2 7 5 1 1 4 4 4 8 15 17 9 4 4 4 3 5 6 6 3 4 5 7 5 4 7 9 9 8 16 18 18 21 24 24 25
14 12 9 4 4 5 4 2 4 1 5 10 15 15 13 7 2 6 12 11 8 6 4 3 5 5 5 3 6 7 8 12 4 1 5 3 10 7 16 23 27 24 23 24 22
14 12 9 5 5 6 7 6 5 7 2 5 9 11 10 9 6 8 16 10 4 6 6 5 2 5 3 4 5 9 10 8 3 4 3 6 8 8 9 16 20 21 23 22 24
15 12 8 4 4 6 8 9 5 4 2 3 4 5 9 7 4 8 16 7 4 7 6 6 4 4 2 4 4 3 9 15 6 4 4 5 7 8 6 12 16 23 23 25 24
16 13 7 5 3 9 9 7 4 5 3 3 3 3 10 8 6 7 16 7 6 5 4 2 3 2 9 1 8 4 4 12 8 1 8 4 5 4 1 8 16 20 23 23 25
16 14 7 6 9 9 11 4 7 2 4 3 4 5 7 2 3 5 5 5 2 4 2 6 3 4 3 4 7 6 8 6 3 3 4 3 6 7 2 2 3 17 23 21 22
15 13 8 7 8 14 8 11 2 3 2 5 4 5 6 6 5 3 7 9 7 4 6 3 7 3 5 5 7 4 4 1 1 3 3 3 4 8 7 9 7 9 20 17 19
15 11 6 8 11 18 13 2 4 2 4 1 2 4 8 7 5 3 5 9 2 2 1 3 11 7 6 9 12 7 6 4 4 3 4 2 4 2 7 9 3 2 9 11 14
13 8 4 11 18 18 11 4 4 4 1 2 3 4 4 4 4 7 7 7 8 11 8 2 5 2 4 1 3 6 5 2 3 2 3 1 4 5 8 13 12 11 9 6 7
10 1 5 11 20 16 4 4 3 3 3 0 3 3 8 8 7 8 8 3 6 14 15 6 4 1 1 2 7 4 7 3 1 3 3 1 4 2 9 12 7 7 7 5 1
4 3 1 11 21 8 8 5 4 5 4 2 1 1 2 5 8 6 3 1 0 5 7 8 4 4 3 2 4 4 3 5 3 2 2 3 2 7 11 9 3 7 8 7 7
0 2 9 16 5 0 5 4 2 2 1 3 2 3 4 6 6 7 8 3 3 8 9 8 3 6 4 2 4 3 3 5 4 5 1 2 1 7 8 9 8 9 10 12 15
3 3 13 5 3 3 1 2 3 4 3 2 3 3 0 3 3 4 5 4 4 6 8 9 6 5 2 4 4 3 3 3 5 2 5 3 1 6 10 14 13 13 15 19 20
2 2 3 2 3 2 3 2 2 3 4 3 3 2 2 2 1 5 5 3 1 3 2 8 3 5 10 8 3 5 6 6 3 4 7 4 3 4 9 12 15 17 19 23 25
4 2 1 3 2 1 1 1 2 2 2 2 3 8 6 5 2 4 3 3 3 2 2 3 4 3 1 2 4 5 10 10 7 2 4 6 4 7 8 11 15 18 19 24 26
3 2 2 2 0 3 1 2 1 2 2 3 5 2 6 5 6 8 6 4 2 2 2 1 2 2 3 1 2 4 3 4 2 2 3 9 8 8 14 17 18 17 19 21 22
8 5 2 3 1 3 2 1 2 3 1 1 1 2 4 2 2 4 3 3 3 1 2 1 5 5 4 1 1 4 7 5 3 1 1 7 9 18 15 16 15 16 17 18 19
Wind_Direction
5 4 4 7 18 6 318 224 242 249 236 234 244 248 239 263 266 254 241 206 203 188 181 179 180 108 31 355 63 65 105 130 143 169 158 152 146 141 113 136 141 62 149 159 158
360 359 356 359 4 12 330 257 230 250 247 219 254 278 288 287 281 257 218 200 195 199 188 181 169 174 20 359 88 250 102 148 187 173 166 166 166 151 147 155 145 94 149 162 164
354 352 349 352 351 357 338 260 245 242 243 255 244 278 309 327 329 195 187 181 193 180 181 169 156 122 359 335 182 148 290 179 214 192 169 166 170 168 156 188 194 168 160 169 170
349 347 343 339 341 341 322 256 218 234 238 231 231 288 311 352 48 113 150 151 171 172 170 189 159 289 302 328 220 283 269 260 128 174 161 169 165 184 182 163 198 174 173 174 177
348 341 337 330 326 326 316 284 238 226 234 239 218 242 316 302 45 192 161 164 172 177 163 176 182 306 349 336 267 254 334 346 147 154 171 162 178 184 201 206 159 169 175 179 183
348 339 331 320 315 310 305 273 235 226 238 221 231 228 227 243 47 138 173 188 186 173 161 188 264 326 294 308 269 300 322 106 129 137 155 171 176 194 197 162 158 172 180 186 190
352 338 328 314 304 299 292 264 232 216 225 229 230 245 239 205 152 151 181 198 197 191 155 303 290 283 318 286 301 272 118 102 101 136 137 153 181 219 186 173 170 180 187 190 195
353 341 322 308 298 289 284 243 230 224 222 242 228 247 233 204 203 171 181 201 195 196 226 269 312 295 256 301 291 44 86 130 93 170 150 182 267 206 182 178 182 186 192 196 199
353 345 328 304 294 290 277 228 227 225 210 225 241 220 223 208 190 180 183 200 202 219 240 260 307 283 290 282 93 41 64 125 136 113 155 207 272 197 186 191 191 191 195 202 205
352 345 333 307 281 268 254 213 213 232 225 216 234 238 209 144 169 197 184 178 151 192 231 225 230 257 237 12 36 346 331 257 208 175 193 207 245 214 193 200 200 198 198 201 210
350 344 332 305 265 235 212 194 272 274 226 217 208 196 95 100 157 181 196 192 181 180 206 197 254 300 337 313 306 254 236 258 266 241 224 235 251 210 191 203 208 204 202 206 212
348 343 329 296 253 231 200 169 120 358 302 245 243 247 245 250 255 197 177 166 177 194 169 207 261 271 294 270 241 246 251 257 273 244 252 315 279 240 196 209 208 204 207 212 216
345 341 327 294 254 226 193 183 183 356 285 276 234 235 233 222 229 206 177 168 170 191 200 244 263 305 275 328 229 233 233 259 253 152 99 316 275 236 219 222 215 216 215 212 216
339 339 325 292 238 204 191 203 238 284 311 231 216 217 194 170 215 205 188 163 169 221 180 248 266 251 308 288 205 256 234 260 347 343 333 0 306 292 224 220 214 216 212 213 216
335 334 317 236 200 175 175 175 251 154 294 124 160 185 174 184 137 184 187 185 200 185 189 196 192 249 306 320 183 312 3 233 261 348 314 265 277 263 307 224 221 221 223 217 218
329 326 311 238 211 177 160 185 144 234 249 158 137 157 159 186 130 118 168 190 158 182 267 265 301 276 253 170 193 120 99 80 93 282 268 343 247 293 274 266 301 211 224 221 219
324 318 294 218 189 175 164 148 206 229 9 164 179 176 191 170 182 139 169 183 202 200 232 236 237 216 211 233 135 168 175 351 246 198 281 36 216 278 331 305 282 224 218 220 221
323 310 273 202 175 175 162 150 223 239 245 11 121 120 195 165 198 144 160 205 178 174 135 270 252 208 170 240 270 191 225 249 288 279 333 126 243 69 335 17 15 165 200 204 214
324 309 225 192 180 174 167 199 230 207 322 328 129 166 175 183 200 181 200 212 205 186 218 235 257 288 238 227 224 159 196 47 143 119 255 274 255 109 76 40 56 75 114 158 205
333 266 172 179 177 175 180 225 239 238 325 244 230 212 174 178 182 189 190 182 207 194 206 188 268 203 68 138 58 247 129 175 208 246 275 198 275 27 1 2 18 51 46 22 335
333 153 279 173 169 180 200 218 248 255 233 302 299 189 174 185 204 184 166 138 79 167 189 160 231 190 226 221 174 143 178 64 107 324 280 307 57 5 346 345 72 53 40 39 36
121 147 142 140 159 260 206 190 215 271 175 294 253 256 212 169 171 193 201 224 336 176 183 192 208 246 283 306 240 253 155 180 222 174 74 316 301 16 30 52 65 70 74 72 70
34 92 166 119 186 192 221 223 250 249 233 246 273 239 283 183 181 191 189 123 51 187 169 170 215 215 149 174 184 208 131 113 110 132 171 214 137 47 63 64 62 75 75 77 77
13 131 123 224 81 133 158 159 243 265 251 252 272 199 176 175 297 170 167 151 109 143 178 168 162 233 230 218 152 186 179 169 243 184 160 217 152 81 72 73 74 77 81 83 81
28 63 74 164 146 95 280 149 236 277 208 230 230 228 198 195 201 192 177 182 130 83 97 215 232 208 209 307 233 212 188 180 206 192 228 132 136 121 104 101 94 94 88 84 82
56 21 22 71 286 185 231 175 249 259 281 218 240 201 200 215 207 202 177 214 168 107 105 76 192 215 173 115 163 193 143 167 179 148 153 145 121 141 124 118 107 98 96 88 84
28 18 29 357 84 188 139 239 208 303 120 249 107 134 156 75 57 50 77 74 88 59 97 96 158 179 215 14 138 227 201 189 143 148 200 195 143 149 132 114 106 105 94 88 85